Time,TemperatureF,DewpointF,PressureIn,WindDirection,WindDirectionDegrees,WindSpeedMPH,WindSpeedGustMPH,Humidity,HourlyPrecipIn,Conditions,Clouds,dailyrainin,SoftwareType,DateUTC
2013-08-28 13:14:00,89.0,73.0,30.03,WSW,240,1.0,4.0,60,0.00,,,0.00,,2013-08-28 17:14:00,
2013-08-28 13:24:00,89.0,75.0,30.03,SSW,210,0.0,2.0,63,0.00,,,0.00,,2013-08-28 17:24:00,
2013-08-28 13:52:00,90.0,74.0,30.02,West,259,1.0,2.0,60,0.00,,,0.00,,2013-08-28 17:52:00,
2013-08-28 14:12:00,90.0,72.0,30.02,SW,222,1.0,4.0,55,0.00,,,0.00,,2013-08-28 18:12:00,
2013-08-28 14:22:00,91.0,73.0,30.01,SSW,200,1.0,4.0,56,0.00,,,0.00,,2013-08-28 18:22:00,
2013-08-28 14:53:00,91.0,73.0,30.00,WNW,291,0.0,2.0,56,0.00,,,0.00,,2013-08-28 18:53:00,
2013-08-28 15:12:00,91.0,71.0,30.00,South,177,1.0,4.0,53,0.00,,,0.00,,2013-08-28 19:12:00,
2013-08-28 15:22:00,91.0,75.0,29.99,North,352,0.0,3.0,60,0.00,,,0.00,,2013-08-28 19:22:00,
2013-08-28 15:42:00,91.0,73.0,29.98,SW,219,2.0,6.0,56,0.00,,,0.00,,2013-08-28 19:42:00,
2013-08-28 15:52:00,91.0,75.0,29.98,SW,233,1.0,4.0,59,0.00,,,0.00,,2013-08-28 19:52:00,
2013-08-28 16:12:00,91.0,72.0,29.98,SE,142,1.0,5.0,54,0.00,,,0.00,,2013-08-28 20:12:00,
2013-08-28 16:23:00,91.0,77.0,29.98,West,259,1.0,3.0,63,0.00,,,0.00,,2013-08-28 20:23:00,
2013-08-28 16:52:00,89.0,76.0,29.97,SW,221,0.0,1.0,65,0.00,,,0.00,,2013-08-28 20:52:00,
2013-08-28 17:12:00,88.0,77.0,29.96,SW,221,0.0,1.0,69,0.00,,,0.00,,2013-08-28 21:12:00,
2013-08-28 17:22:00,89.0,76.0,29.96,SSE,155,0.0,1.0,66,0.00,,,0.00,,2013-08-28 21:22:00,
2013-08-28 17:57:00,88.0,76.0,29.95,SW,223,0.0,3.0,68,0.00,,,0.00,,2013-08-28 21:57:00,
2013-08-28 18:15:00,86.0,75.0,29.95,SSW,204,0.0,1.0,71,0.00,,,0.00,,2013-08-28 22:15:00,
2013-08-28 18:25:00,85.0,76.0,29.95,SSW,204,0.0,0.0,75,0.00,,,0.00,,2013-08-28 22:25:00,
2013-08-28 18:54:00,83.0,76.0,29.95,SSW,204,0.0,0.0,79,0.00,,,0.00,,2013-08-28 22:54:00,
2013-08-28 19:13:00,82.0,76.0,29.95,SSW,205,0.0,0.0,83,0.00,,,0.00,,2013-08-28 23:13:00,
2013-08-28 19:22:00,82.0,77.0,29.95,SSW,205,0.0,0.0,84,0.00,,,0.00,,2013-08-28 23:22:00,
2013-08-28 19:53:00,80.0,75.0,29.96,SSW,204,0.0,0.0,85,0.00,,,0.00,,2013-08-28 23:53:00,
2013-08-28 20:12:00,79.0,75.0,29.96,SSW,204,0.0,0.0,87,0.00,,,0.00,,2013-08-29 00:12:00,
2013-08-28 21:13:00,76.0,73.0,29.97,SSW,204,0.0,0.0,89,0.00,,,0.00,,2013-08-29 01:13:00,
2013-08-28 21:22:00,75.0,72.0,29.97,SSW,204,0.0,0.0,89,0.00,,,0.00,,2013-08-29 01:22:00,
2013-08-28 21:42:00,75.0,72.0,29.97,SSW,204,0.0,0.0,90,0.00,,,0.00,,2013-08-29 01:42:00,
2013-08-28 21:52:00,74.0,71.0,29.97,SSW,205,0.0,0.0,90,0.00,,,0.00,,2013-08-29 01:52:00,
2013-08-28 22:12:00,74.0,71.0,29.97,SSW,205,0.0,0.0,90,0.00,,,0.00,,2013-08-29 02:12:00,
2013-08-28 22:22:00,73.0,70.0,29.98,SSW,204,0.0,0.0,91,0.00,,,0.00,,2013-08-29 02:22:00,
2013-08-28 23:11:00,72.0,70.0,29.98,SSW,204,0.0,0.0,92,0.00,,,0.00,,2013-08-29 03:11:00,
2013-08-28 23:23:00,72.0,70.0,29.98,SSW,204,0.0,0.0,92,0.00,,,0.00,,2013-08-29 03:23:00,
2013-08-28 23:57:00,72.0,70.0,29.98,SSW,204,0.0,0.0,93,0.00,,,0.00,,2013-08-29 03:57:00,